Location: Bieujac
(44.5398°N, 0.1549°W)
Time: 09:58:41
(UTC+00:00)

CZ-4B R/B - Pass Details

Date: 17 November 2019
Orbit: 498 x 646 km, 97.7° (Epoch: 16 December)

Event Time Altitude Azimuth Distance (km) Brightness Sun altitude
Rises 05:11:19 0° 6° (N) 2,962 7.5 -19.1°
Reaches altitude 10° 05:13:36 10° 0° (N) 2,054 6.6 -18.7°
Maximum altitude 05:17:53 45° 289° (WNW) 890 4.4 -18.0°
Drops below altitude 10° 05:22:07 10° 217° (SW) 2,031 6.4 -17.2°
Sets 05:24:22 0° 211° (SSW) 2,925 7.3 -16.8°
